When you browse on this site, cookies collect data to enhance your experience and personalize the content and advertising you see.
Visit our Privacy Policy to learn more. By continuing to use the site, you agree to this use of cookies and data.
  • In Schweiz
  • Länderverzeichnis
  • Für 7 Tage
  • Wassertemperatur
  • Wetterkarte
  • Widgets
  • user-avatar
    Anmelden

    Stündliche Wetter Ruan

    Heute, 14 November, Donnerstag

    Zeit Temperatur Niederschläge Wind Luftdruck Luftfeuchtigkeit
    00:00 +4°C° 0 mm 7 m/S 737 mmHg 89%
    01:00 +4°C° 0.4 mm 6 m/S 737 mmHg 89%
    02:00 +3°C° 0.4 mm 6 m/S 737 mmHg 89%
    03:00 +3°C° 0.4 mm 5 m/S 736 mmHg 89%
    04:00 +2°C° 0 mm 5 m/S 737 mmHg 90%
    05:00 +3°C° 0 mm 4 m/S 737 mmHg 91%
    06:00 0°C° 0 mm 5 m/S 738 mmHg 92%
    07:00 +1°C° 0 mm 5 m/S 739 mmHg 90%
    08:00 +1°C° 0 mm 5 m/S 739 mmHg 88%
    09:00 +2°C° 0 mm 5 m/S 740 mmHg 86%
    10:00 +3°C° 0 mm 5 m/S 740 mmHg 81%
    11:00 +5°C° 0 mm 5 m/S 740 mmHg 76%
    12:00 +6°C° 0 mm 5 m/S 740 mmHg 72%
    13:00 +6°C° 0 mm 4 m/S 741 mmHg 73%
    14:00 +6°C° 0 mm 4 m/S 741 mmHg 73%
    15:00 +7°C° 0 mm 3 m/S 741 mmHg 74%
    16:00 +5°C° 0 mm 3 m/S 741 mmHg 79%
    17:00 +5°C° 0 mm 2 m/S 742 mmHg 83%
    18:00 +4°C° 0 mm 2 m/S 742 mmHg 88%
    19:00 +3°C° 0 mm 2 m/S 742 mmHg 89%
    20:00 +3°C° 0 mm 2 m/S 743 mmHg 90%
    21:00 +3°C° 0 mm 2 m/S 743 mmHg 91%
    22:00 +2°C° 0 mm 2 m/S 743 mmHg 91%
    23:00 +2°C° 0 mm 2 m/S 743 mmHg 92%

    Morgen, 15 November, Freitag

    Zeit Temperatur Niederschläge Wind Luftdruck Luftfeuchtigkeit
    00:00 +2°C° 0 mm 2 m/S 744 mmHg 92%
    01:00 +2°C° 0 mm 2 m/S 743 mmHg 93%
    02:00 +2°C° 0 mm 2 m/S 743 mmHg 93%
    03:00 +1°C° 0 mm 3 m/S 743 mmHg 94%
    04:00 +1°C° 0 mm 3 m/S 743 mmHg 93%
    05:00 +1°C° 0 mm 3 m/S 743 mmHg 92%
    06:00 +2°C° 0 mm 3 m/S 743 mmHg 90%
    07:00 +2°C° 0.2 mm 3 m/S 743 mmHg 90%
    08:00 +3°C° 0.2 mm 3 m/S 743 mmHg 89%
    09:00 +4°C° 0.2 mm 3 m/S 743 mmHg 88%
    10:00 +4°C° 0.7 mm 3 m/S 743 mmHg 88%
    11:00 +4°C° 0.7 mm 3 m/S 742 mmHg 88%
    12:00 +4°C° 0.7 mm 3 m/S 742 mmHg 88%
    13:00 +3°C° 2 mm 3 m/S 742 mmHg 91%
    14:00 +3°C° 2 mm 3 m/S 742 mmHg 94%
    15:00 +3°C° 2 mm 2 m/S 741 mmHg 96%
    16:00 +3°C° 0.4 mm 2 m/S 741 mmHg 96%
    17:00 +3°C° 0.4 mm 2 m/S 741 mmHg 96%
    18:00 +4°C° 0.4 mm 1 m/S 741 mmHg 96%
    19:00 +4°C° 0.1 mm 1 m/S 742 mmHg 96%
    20:00 +3°C° 0.1 mm 2 m/S 742 mmHg 96%
    21:00 +3°C° 0.1 mm 2 m/S 743 mmHg 96%
    22:00 +3°C° 0 mm 2 m/S 743 mmHg 95%
    23:00 +3°C° 0 mm 2 m/S 743 mmHg 94%

    übermorgen, 16 November, Samstag

    Zeit Temperatur Niederschläge Wind Luftdruck Luftfeuchtigkeit
    00:00 +2°C° 0 mm 3 m/S 743 mmHg 94%
    01:00 +2°C° 0 mm 3 m/S 744 mmHg 94%
    02:00 +3°C° 0 mm 3 m/S 744 mmHg 95%
    03:00 +3°C° 0 mm 3 m/S 744 mmHg 95%
    04:00 +3°C° 0 mm 3 m/S 745 mmHg 95%
    05:00 +3°C° 0 mm 3 m/S 745 mmHg 94%
    06:00 +4°C° 0 mm 3 m/S 746 mmHg 94%
    07:00 +4°C° 0 mm 3 m/S 746 mmHg 93%
    08:00 +4°C° 0 mm 4 m/S 747 mmHg 91%
    09:00 +4°C° 0 mm 4 m/S 747 mmHg 90%
    10:00 +5°C° 0 mm 4 m/S 748 mmHg 88%
    11:00 +5°C° 0 mm 4 m/S 748 mmHg 87%
    12:00 +5°C° 0 mm 4 m/S 749 mmHg 85%
    13:00 +5°C° 0 mm 4 m/S 749 mmHg 84%
    14:00 +5°C° 0 mm 4 m/S 749 mmHg 83%
    15:00 +6°C° 0 mm 4 m/S 749 mmHg 82%
    16:00 +5°C° 0 mm 3 m/S 749 mmHg 84%
    17:00 +5°C° 0 mm 3 m/S 750 mmHg 85%
    18:00 +5°C° 0 mm 2 m/S 750 mmHg 87%
    19:00 +5°C° 0 mm 2 m/S 750 mmHg 87%
    20:00 +5°C° 0 mm 2 m/S 750 mmHg 87%
    21:00 +5°C° 0 mm 2 m/S 751 mmHg 88%
    22:00 +5°C° 0 mm 2 m/S 751 mmHg 88%
    23:00 +5°C° 0 mm 2 m/S 751 mmHg 88%

    17 November, Sonntag

    Zeit Temperatur Niederschläge Wind Luftdruck Luftfeuchtigkeit
    00:00 +5°C° 0 mm 2 m/S 751 mmHg 88%
    01:00 +5°C° 0 mm 2 m/S 750 mmHg 88%
    02:00 +4°C° 0 mm 2 m/S 750 mmHg 89%
    03:00 +4°C° 0 mm 2 m/S 750 mmHg 89%
    04:00 +3°C° 0 mm 2 m/S 750 mmHg 90%
    05:00 +3°C° 0 mm 2 m/S 750 mmHg 90%
    06:00 +2°C° 0 mm 2 m/S 750 mmHg 91%
    07:00 +3°C° 0 mm 2 m/S 750 mmHg 89%
    08:00 +3°C° 0 mm 2 m/S 750 mmHg 87%
    09:00 +4°C° 0 mm 2 m/S 750 mmHg 85%
    10:00 +5°C° 0 mm 2 m/S 750 mmHg 80%
    11:00 +6°C° 0 mm 2 m/S 750 mmHg 74%
    12:00 +8°C° 0 mm 2 m/S 750 mmHg 69%
    13:00 +7°C° 0 mm 2 m/S 750 mmHg 72%
    14:00 +7°C° 0 mm 2 m/S 749 mmHg 75%
    15:00 +7°C° 0 mm 2 m/S 749 mmHg 77%
    16:00 +6°C° 0 mm 2 m/S 749 mmHg 81%
    17:00 +5°C° 0 mm 2 m/S 749 mmHg 84%
    18:00 +4°C° 0 mm 2 m/S 749 mmHg 88%
    19:00 +4°C° 0 mm 2 m/S 749 mmHg 88%
    20:00 +4°C° 0 mm 2 m/S 749 mmHg 88%
    21:00 +4°C° 0 mm 2 m/S 749 mmHg 89%
    22:00 +4°C° 0 mm 2 m/S 749 mmHg 88%
    23:00 +5°C° 0 mm 2 m/S 749 mmHg 87%

    18 November, Montag

    Zeit Temperatur Niederschläge Wind Luftdruck Luftfeuchtigkeit
    00:00 +6°C° 0 mm 1 m/S 749 mmHg 86%
    01:00 +5°C° 0 mm 2 m/S 748 mmHg 88%
    02:00 +4°C° 0 mm 2 m/S 748 mmHg 90%
    03:00 +4°C° 0 mm 2 m/S 748 mmHg 92%
    04:00 +4°C° 0 mm 2 m/S 748 mmHg 93%
    05:00 +4°C° 0 mm 2 m/S 748 mmHg 94%
    06:00 +4°C° 0 mm 2 m/S 748 mmHg 94%
    07:00 +4°C° 0 mm 2 m/S 748 mmHg 93%
    08:00 +5°C° 0 mm 2 m/S 749 mmHg 91%
    09:00 +5°C° 0 mm 3 m/S 749 mmHg 90%
    10:00 +7°C° 0 mm 3 m/S 749 mmHg 85%
    11:00 +6°C° 0 mm 4 m/S 749 mmHg 80%
    12:00 +7°C° 0 mm 4 m/S 749 mmHg 75%
    13:00 +7°C° 0 mm 4 m/S 749 mmHg 76%
    14:00 +7°C° 0 mm 4 m/S 749 mmHg 77%
    15:00 +6°C° 0 mm 4 m/S 749 mmHg 78%
    16:00 +7°C° 0 mm 3 m/S 749 mmHg 81%
    17:00 +5°C° 0 mm 3 m/S 749 mmHg 84%
    18:00 +5°C° 0 mm 2 m/S 750 mmHg 87%
    19:00 +5°C° 0.1 mm 2 m/S 750 mmHg 88%
    20:00 +4°C° 0.1 mm 3 m/S 750 mmHg 89%
    21:00 +4°C° 0.1 mm 3 m/S 750 mmHg 90%
    22:00 +3°C° 0.1 mm 3 m/S 750 mmHg 92%
    23:00 +3°C° 0.1 mm 3 m/S 750 mmHg 93%

    19 November, Dienstag

    Zeit Temperatur Niederschläge Wind Luftdruck Luftfeuchtigkeit
    00:00 +2°C° 0.1 mm 3 m/S 751 mmHg 95%
    01:00 +2°C° 0 mm 3 m/S 750 mmHg 94%
    02:00 +2°C° 0 mm 3 m/S 750 mmHg 93%
    03:00 +2°C° 0 mm 3 m/S 750 mmHg 92%
    04:00 +2°C° 0 mm 3 m/S 750 mmHg 92%
    05:00 +2°C° 0 mm 3 m/S 750 mmHg 93%
    06:00 +2°C° 0 mm 3 m/S 750 mmHg 93%
    07:00 +2°C° 0 mm 3 m/S 751 mmHg 89%
    08:00 +3°C° 0 mm 4 m/S 751 mmHg 86%
    09:00 +3°C° 0 mm 4 m/S 751 mmHg 83%
    10:00 +4°C° 0 mm 4 m/S 751 mmHg 80%
    11:00 +5°C° 0 mm 5 m/S 750 mmHg 78%
    12:00 +6°C° 0 mm 5 m/S 750 mmHg 75%
    13:00 +7°C° 0 mm 5 m/S 750 mmHg 76%
    14:00 +7°C° 0 mm 5 m/S 749 mmHg 77%
    15:00 +7°C° 0 mm 5 m/S 749 mmHg 77%
    16:00 +5°C° 0 mm 6 m/S 749 mmHg 79%
    17:00 +5°C° 0 mm 6 m/S 749 mmHg 80%
    18:00 +5°C° 0 mm 7 m/S 749 mmHg 82%
    19:00 +5°C° 0 mm 7 m/S 749 mmHg 81%
    20:00 +5°C° 0 mm 7 m/S 748 mmHg 81%
    21:00 +5°C° 0 mm 7 m/S 748 mmHg 80%
    22:00 +5°C° 0 mm 6 m/S 748 mmHg 81%
    23:00 +5°C° 0 mm 6 m/S 748 mmHg 81%
    Mehr zeigen